Weather Roundup
Issued by NWS Chicago, IL

Home | Current Version | Previous Version | Graphics & Text | Print | Product List | Glossary On
Versions: 1 2 3 4 5 6 7 8 9 10 11 12 13 14 15 16 17 18 19 20 21 22 23 24 25 26 27 28 29 30 31 32 33 34 35 36 37 38 39 40 41 42 43 44 45 46 47 48 49 50
311
NZUS59 KLOT 072208
HRRLOT

CHICAGO AREA WEATHER ROUNDUP
NATIONAL WEATHER SERVICE CHICAGO/ROMEOVILLE IL
400 PM CST SUN FEB 07 2016

NOTE: "FAIR" INDICATES FEW OR NO CLOUDS BELOW 12,000 FEET WITH NO
SIGNIFICANT WEATHER AND/OR OBSTRUCTIONS TO VISIBILITY.

* THESE STATIONS ARE NOT UNDER NWS QUALITY CONTROL. THEY ALSO MAY NOT
  REPORT WEATHER SUCH AS PRECIPITATION OR FOG.

ILZ005-006-012>014-019>023-072300-
NORTHEAST ILLINOIS

CITY           SKY/WX    TMP DP  RH WIND       PRES   REMARKS
OHARE          CLOUDY    42  32  67 W15G23    29.72S
MIDWAY         CLOUDY    45  31  58 SW18G24   29.74S
AURORA         MOSUNNY   45  34  65 W18       29.74S
LANSING*       PTSUNNY   43  32  65 SW14G22   29.76R
JOLIET*        MOSUNNY   46  34  63 SW13      29.77R
WAUKEGAN       SUNNY     41  33  73 SW16      29.69S
DUPAGE AIRPORT MOSUNNY   43  33  68 SW15G21   29.73S
WHEELING       CLOUDY    43  32  65 SW12      29.73R
KANKAKEE*      PTSUNNY   43  33  65 SW13      29.79S
MORRIS*          N/A     45  33  64 W14       29.74S
LEWIS AIRPORT* PTSUNNY   43  32  66 W15       29.75S
$$

WIZ051-052-058>065-066-070>072-072300-
SOUTHEAST WISCONSIN

CITY           SKY/WX    TMP DP  RH WIND       PRES   REMARKS
MILWAUKEE      MOSUNNY   44  30  57 W18G24    29.67R
KENOSHA*       SUNNY     43  32  65 SW18      29.68S
RACINE*        SUNNY     44  31  60 SW12G21   29.69R
BURLINGTON     SUNNY     41  31  67 SW17G23   29.68S
WAUKESHA       MOSUNNY   39  28  65 SW13G23   29.67R
WEST BEND      SUNNY     41  30  65 SW13G20   29.64S
$$

INZ001>003-010>013-019-020-072300-
NORTHWEST INDIANA

CITY           SKY/WX    TMP DP  RH WIND       PRES   REMARKS
GARY*          PTSUNNY   46  30  53 SW16G32   29.76R
MICHIGAN CITY* NOT AVBL
RENSSELAER*    NOT AVBL
VALPARAISO     MOSUNNY   45  33  63 SW18      29.76S
$$

LMZ740>746-072300-
SOUTHERN LAKE MICHIGAN

STATION/POSITION TIME  SKY/WX   TEMP WIND        PRES    VSBY
                                AIR  DIR/SP/G
                 (UTC)          (F)  (DEG/KT/KT) (MB)    (MI)
HARRISON CRIB    2100            44  240/ 15/ 17   N/A
BURNHAM HARBOR   2200            44  180/  4/ 16   N/A
CALUMET HARBOR   2100            44  200/ 15/ 21 1006.3R
BURNS HARBOR     2117            45  240/ 18/ 25 1007.8S
MICHIGAN CITY    2100            44  200/ 22/ 26   N/A
$$

ABBREVIATIONS USED IN REMARKS
   TC - TEMPERATURE IN CELSIUS
  WCI - WIND CHILL INDEX
   HX - HEAT INDEX
  VSB - VISIBILITY
$$




USA.gov is the U.S. government's official web portal to all federal, state and local government web resources and services.